Regional Weather Roundup
Issued by NWS

Home | Current Version | Previous Version | Text Only | Print | Product List | Glossary On
Versions: 1 2 3 4 5 6 7 8 9 10 11 12 13 14 15 16 17 18 19 20 21 22 23 24 25 26 27 28 29 30 31 32 33 34 35 36 37 38 39 40 41 42 43 44 45 46 47 48 49 50
000
ASUS44 KBMX 281510
RWRAL

ALABAMA REGIONAL WEATHER ROUNDUP
NATIONAL WEATHER SERVICE BIRMINGHAM AL
1000 AM CDT WED SEP 28 2016

NOTE: "FAIR" INDICATES FEW OR NO CLOUDS BELOW 12,000 FEET
WITH NO SIGNIFICANT WEATHER AND/OR OBSTRUCTIONS TO VISIBILITY.

THE REMARK "TC" DENOTES TEMPERATURE IN DEGREES CELSIUS.

ALZ001>011-014-016>018-020-281600-
NORTH ALABAMA

CITY           SKY/WX    TMP DP  RH WIND       PRES   REMARKS
MUSCLE SHOALS  SUNNY     73  45  36 SW5       30.00R
HUNTSVILLE     SUNNY     71  51  49 S3        29.99R
DECATUR        SUNNY     72  51  47 S6        30.00R
HALEYVILLE     FAIR      72  47  40 VRB5      30.02R
GADSDEN        SUNNY     73  49  42 CALM      29.99S
$$

ALZ012-013-022-023-030>036-040>044-281600-
WEST CENTRAL ALABAMA

CITY           SKY/WX    TMP DP  RH WIND       PRES   REMARKS
TUSCALOOSA     SUNNY     75  52  44 CALM      30.00R
$$

ALZ015-024>027-033>036-040>044-281600-
CENTRAL ALABAMA

CITY           SKY/WX    TMP DP  RH WIND       PRES   REMARKS
BIRMINGHAM     MOSUNNY   78  40  25 NW3       30.01S
MONTGOMERY     SUNNY     82  60  47 VRB5      29.98R
SHELBY CO ARPT SUNNY     79  43  27 W6        29.99R
MAXWELL AFB    SUNNY     81  60  49 SW5       29.98R
GREENVILLE     NOT AVBL
$$

ALZ019-021-028-029-037-038-045>048-281600-
EAST CENTRAL ALABAMA

CITY           SKY/WX    TMP DP  RH WIND       PRES   REMARKS
ANNISTON       SUNNY     77  50  38 VRB5      29.98S
ALEXANDER CITY SUNNY     80  63  55 W3        29.99R
AUBURN         SUNNY     83  55  38 W7        30.00R
$$

ALZ051>064-281600-
SOUTHWEST ALABAMA

CITY           SKY/WX    TMP DP  RH WIND       PRES   REMARKS
MOBILE         MOSUNNY   81  60  48 N6        30.01R
BROOKLEY FIELD SUNNY     81  61  50 N5        30.01R
EVERGREEN      MOSUNNY   80  68  66 CALM      30.00R
$$

ALZ049-050-065>069-281600-
SOUTHEAST ALABAMA

CITY           SKY/WX    TMP DP  RH WIND       PRES   REMARKS
DOTHAN         SUNNY     83  70  64 CALM      30.02R
OZARK          SUNNY     80  71  73 CALM      29.98R
TROY           SUNNY     80  65  59 CALM      30.00R
EUFAULA        NOT AVBL
$$



USA.gov is the U.S. government's official web portal to all federal, state and local government web resources and services.